When you browse on this site, cookies collect data to enhance your experience and personalize the content and advertising you see.
Visit our Privacy Policy to learn more. By continuing to use the site, you agree to this use of cookies and data.
  • In Lithuania
  • List of Countries
  • For 7 days
  • Water Temperature
  • Satellite Maps
  • Weather Map
  • Weather Widgets
  • user-avatar
    Login

    Hourly Weather Sadovyy

    Today, 25 March, Monday

    Time Temperature Precipitation Wind Pressure Humidity
    00:00 +1°C° 0 mm 5 mps 760 mmHg 76%
    01:00 +1°C° 0 mm 5 mps 760 mmHg 79%
    02:00 +1°C° 0 mm 5 mps 760 mmHg 81%
    03:00 +2°C° 0 mm 3 mps 760 mmHg 85%
    04:00 0°C° 0 mm 4 mps 760 mmHg 85%
    05:00 0°C° 0 mm 4 mps 760 mmHg 86%
    06:00 0°C° 0 mm 5 mps 760 mmHg 86%
    07:00 +1°C° 0 mm 5 mps 760 mmHg 83%
    08:00 +2°C° 0 mm 5 mps 760 mmHg 80%
    09:00 +5°C° 0 mm 5 mps 760 mmHg 74%
    10:00 +6°C° 0 mm 5 mps 760 mmHg 68%
    11:00 +8°C° 0 mm 5 mps 759 mmHg 62%
    12:00 +10°C° 0 mm 4 mps 759 mmHg 56%
    13:00 +10°C° 0.1 mm 4 mps 759 mmHg 55%
    14:00 +11°C° 0.1 mm 4 mps 759 mmHg 54%
    15:00 +11°C° 0.1 mm 4 mps 760 mmHg 53%
    16:00 +10°C° 0 mm 4 mps 760 mmHg 56%
    17:00 +10°C° 0 mm 4 mps 760 mmHg 59%
    18:00 +9°C° 0 mm 3 mps 760 mmHg 62%
    19:00 +8°C° 0 mm 3 mps 760 mmHg 66%
    20:00 +7°C° 0 mm 2 mps 760 mmHg 70%
    21:00 +6°C° 0 mm 2 mps 760 mmHg 74%
    22:00 +6°C° 0 mm 2 mps 760 mmHg 73%
    23:00 +5°C° 0 mm 2 mps 760 mmHg 73%

    Tomorrow, 26 March, Tuesday

    Time Temperature Precipitation Wind Pressure Humidity
    00:00 +6°C° 0 mm 1 mps 760 mmHg 72%
    01:00 +5°C° 0 mm 2 mps 760 mmHg 72%
    02:00 +5°C° 0 mm 2 mps 760 mmHg 72%
    03:00 +5°C° 0 mm 2 mps 760 mmHg 72%
    04:00 +4°C° 0 mm 2 mps 760 mmHg 75%
    05:00 +3°C° 0 mm 3 mps 760 mmHg 78%
    06:00 +3°C° 0 mm 3 mps 760 mmHg 81%
    07:00 +4°C° 0 mm 3 mps 760 mmHg 73%
    08:00 +6°C° 0 mm 4 mps 760 mmHg 66%
    09:00 +8°C° 0 mm 4 mps 760 mmHg 59%
    10:00 +10°C° 0 mm 4 mps 760 mmHg 53%
    11:00 +12°C° 0 mm 4 mps 760 mmHg 48%
    12:00 +13°C° 0 mm 4 mps 759 mmHg 43%
    13:00 +14°C° 0 mm 4 mps 759 mmHg 41%
    14:00 +14°C° 0 mm 4 mps 759 mmHg 38%
    15:00 +15°C° 0 mm 4 mps 758 mmHg 36%
    16:00 +14°C° 0 mm 3 mps 758 mmHg 40%
    17:00 +15°C° 0 mm 2 mps 758 mmHg 43%
    18:00 +14°C° 0 mm 1 mps 758 mmHg 46%
    19:00 +13°C° 0 mm 1 mps 758 mmHg 49%
    20:00 +12°C° 0 mm 1 mps 758 mmHg 52%
    21:00 +11°C° 0 mm 1 mps 758 mmHg 55%
    22:00 +10°C° 0 mm 1 mps 758 mmHg 58%
    23:00 +9°C° 0 mm 1 mps 758 mmHg 61%

    Day after tomorrow, 27 March, Wednesday

    Time Temperature Precipitation Wind Pressure Humidity
    00:00 +8°C° 0 mm 2 mps 758 mmHg 64%
    01:00 +7°C° 0 mm 2 mps 757 mmHg 65%
    02:00 +7°C° 0 mm 2 mps 757 mmHg 67%
    03:00 +6°C° 0 mm 2 mps 757 mmHg 68%
    04:00 +6°C° 0 mm 2 mps 757 mmHg 70%
    05:00 +5°C° 0 mm 2 mps 757 mmHg 72%
    06:00 +6°C° 0 mm 1 mps 757 mmHg 73%
    07:00 +6°C° 0 mm 2 mps 758 mmHg 72%
    08:00 +7°C° 0 mm 2 mps 758 mmHg 71%
    09:00 +9°C° 0 mm 3 mps 758 mmHg 69%
    10:00 +9°C° 0.1 mm 3 mps 758 mmHg 70%
    11:00 +10°C° 0.1 mm 3 mps 758 mmHg 70%
    12:00 +11°C° 0.1 mm 4 mps 758 mmHg 71%
    13:00 +11°C° 0 mm 4 mps 758 mmHg 65%
    14:00 +12°C° 0 mm 5 mps 758 mmHg 59%
    15:00 +11°C° 0 mm 6 mps 758 mmHg 53%
    16:00 +11°C° 0 mm 6 mps 758 mmHg 50%
    17:00 +10°C° 0 mm 6 mps 759 mmHg 48%
    18:00 +9°C° 0 mm 6 mps 759 mmHg 46%
    19:00 +8°C° 0 mm 6 mps 759 mmHg 48%
    20:00 +7°C° 0 mm 6 mps 760 mmHg 50%
    21:00 +5°C° 0 mm 6 mps 761 mmHg 52%
    22:00 +5°C° 0 mm 5 mps 761 mmHg 52%
    23:00 +3°C° 0 mm 5 mps 761 mmHg 52%

    28 March, Thursday

    Time Temperature Precipitation Wind Pressure Humidity
    00:00 +3°C° 0 mm 4 mps 761 mmHg 52%
    01:00 +2°C° 0 mm 5 mps 761 mmHg 57%
    02:00 +2°C° 0 mm 5 mps 761 mmHg 61%
    03:00 +2°C° 0 mm 5 mps 761 mmHg 65%
    04:00 +1°C° 0 mm 5 mps 761 mmHg 70%
    05:00 +1°C° 0 mm 4 mps 762 mmHg 74%
    06:00 +1°C° 0 mm 4 mps 762 mmHg 78%
    07:00 +3°C° 0 mm 3 mps 762 mmHg 75%
    08:00 +4°C° 0 mm 3 mps 762 mmHg 71%
    09:00 +6°C° 0 mm 2 mps 763 mmHg 68%
    10:00 +5°C° 0.1 mm 3 mps 763 mmHg 62%
    11:00 +7°C° 0.1 mm 3 mps 763 mmHg 56%
    12:00 +8°C° 0.1 mm 3 mps 763 mmHg 50%
    13:00 +8°C° 0.2 mm 3 mps 763 mmHg 47%
    14:00 +9°C° 0.2 mm 3 mps 763 mmHg 44%
    15:00 +8°C° 0.2 mm 4 mps 763 mmHg 41%
    16:00 +8°C° 0 mm 3 mps 764 mmHg 42%
    17:00 +8°C° 0 mm 3 mps 764 mmHg 43%
    18:00 +8°C° 0 mm 3 mps 764 mmHg 44%
    19:00 +7°C° 0 mm 3 mps 764 mmHg 47%
    20:00 +5°C° 0 mm 3 mps 765 mmHg 49%
    21:00 +5°C° 0 mm 2 mps 766 mmHg 51%
    22:00 +5°C° 0 mm 2 mps 766 mmHg 52%
    23:00 +4°C° 0 mm 2 mps 766 mmHg 53%

    29 March, Friday

    Time Temperature Precipitation Wind Pressure Humidity
    00:00 +5°C° 0 mm 1 mps 766 mmHg 54%
    01:00 +3°C° 0 mm 2 mps 766 mmHg 57%
    02:00 +3°C° 0 mm 2 mps 767 mmHg 61%
    03:00 +2°C° 0 mm 2 mps 767 mmHg 65%
    04:00 +2°C° 0 mm 2 mps 767 mmHg 69%
    05:00 +1°C° 0 mm 2 mps 767 mmHg 73%
    06:00 +1°C° 0 mm 2 mps 767 mmHg 77%
    07:00 +2°C° 0 mm 2 mps 767 mmHg 70%
    08:00 +3°C° 0 mm 2 mps 768 mmHg 62%
    09:00 +4°C° 0 mm 2 mps 768 mmHg 55%
    10:00 +4°C° 0 mm 3 mps 767 mmHg 49%
    11:00 +5°C° 0 mm 3 mps 767 mmHg 44%
    12:00 +6°C° 0 mm 4 mps 767 mmHg 38%
    13:00 +6°C° 0 mm 4 mps 766 mmHg 38%
    14:00 +7°C° 0 mm 4 mps 765 mmHg 37%
    15:00 +7°C° 0 mm 5 mps 765 mmHg 37%
    16:00 +7°C° 0 mm 5 mps 764 mmHg 40%
    17:00 +6°C° 0 mm 5 mps 764 mmHg 42%
    18:00 +6°C° 0 mm 5 mps 764 mmHg 45%
    19:00 +5°C° 0 mm 5 mps 764 mmHg 49%
    20:00 +5°C° 0 mm 4 mps 764 mmHg 53%
    21:00 +4°C° 0 mm 4 mps 764 mmHg 56%
    22:00 +4°C° 0 mm 4 mps 764 mmHg 60%
    23:00 +4°C° 0 mm 4 mps 763 mmHg 63%

    30 March, Saturday

    Time Temperature Precipitation Wind Pressure Humidity
    00:00 +3°C° 0 mm 4 mps 763 mmHg 67%
    01:00 +3°C° 0 mm 3 mps 763 mmHg 69%
    02:00 +3°C° 0 mm 3 mps 763 mmHg 71%
    03:00 +3°C° 0 mm 3 mps 763 mmHg 73%
    04:00 +2°C° 0 mm 3 mps 763 mmHg 76%
    05:00 +2°C° 0 mm 3 mps 763 mmHg 78%
    06:00 +1°C° 0 mm 3 mps 764 mmHg 81%
    07:00 +3°C° 0 mm 2 mps 764 mmHg 74%
    08:00 +4°C° 0 mm 2 mps 764 mmHg 68%
    09:00 +6°C° 0 mm 2 mps 765 mmHg 61%
    10:00 +6°C° 0 mm 2 mps 765 mmHg 56%
    11:00 +7°C° 0 mm 2 mps 765 mmHg 51%
    12:00 +8°C° 0 mm 2 mps 766 mmHg 46%
    13:00 +9°C° 0 mm 2 mps 765 mmHg 44%
    14:00 +9°C° 0 mm 2 mps 765 mmHg 41%
    15:00 +11°C° 0 mm 1 mps 765 mmHg 39%
    16:00 +11°C° 0 mm 1 mps 765 mmHg 40%
    17:00 +11°C° 0 mm 1 mps 765 mmHg 42%
    18:00 +9°C° 0 mm 2 mps 765 mmHg 44%
    19:00 +8°C° 0 mm 2 mps 765 mmHg 47%
    20:00 +7°C° 0 mm 2 mps 766 mmHg 49%
    21:00 +6°C° 0 mm 2 mps 766 mmHg 52%
    22:00 +6°C° 0 mm 2 mps 766 mmHg 54%
    23:00 +4°C° 0 mm 3 mps 766 mmHg 56%
    Show more